Weather History for Hereford, TX

Change the Weather History Date:

Tuesday, July 15, 2014

  Actual Average (KAMA) Record (KAMA)
Temperature  
Mean Temperature 70 °F 78 °F  
Max Temperature 81 °F 92 °F 102 °F (1978)
Min Temperature 61 °F 65 °F 55 °F (1973)
Degree Days  
Heating Degree Days 0 0  
Month to date heating degree days 0  
Since 1 June heating degree days 7  
Since 1 July heating degree days 0  
Cooling Degree Days 6 14  
Month to date cooling degree days 199  
Year to date cooling degree days 612  
Since 1 June cooling degree days 487  
Growing Degree Days 20 (Base 50)    
Moisture  
Dew Point 64 °F    
Average Humidity 82    
Maximum Humidity 99    
Minimum Humidity 61    
Precipitation  
Precipitation 0.00 in 0.09 in 1.45 in (1993)
Month to date precipitation 1.28  
Year to date precipitation 10.80  
Snow  
Snow 0.00 in 0.00 in 0.00 in ()
Month to date snowfall 0.0  
Since 1 June snowfall 0.0  
Since 1 July snowfall 0.0  
Snow Depth -    
Sea Level Pressure  
Sea Level Pressure 30.20 in    
Wind  
Wind Speed 6 mph (SE)    
Max Wind Speed 15 mph    
Max Gust Speed 22 mph    
Visibility 10 miles    
Events      
T = Trace of Precipitation, MM = Missing Value Source: NWS Daily Summary

Daily Weather History Graph

Daily Weather History Graph

Search for Another Location

Airport:

Trip Planner

Search our weather history database for the weather conditions in past years. The results will help you decide how hot, cold, wet, or windy it might be!

Date:

Astronomy

Jul. 15, 2014 Rise Set
Actual Time 6:47 AM CDT 9:03 PM CDT
Civil Twilight 6:18 AM CDT 9:32 PM CDT
Nautical Twilight 5:42 AM CDT 10:07 PM CDT
Astronomical Twilight 5:04 AM CDT 10:45 PM CDT
Moon 11:24 PM CDT (7/15) 10:32 AM CDT (7/15)
Length of Visible Light 15h 13m
Length of Day
14h 16m
Waning Gibbous, 85% of the Moon is Illuminated
Jul 15
Waning Gibbous
Jul 18
Last Quarter
Jul 26
New
Aug 3
First Quarter
Aug 10
Full

Hourly Weather History & Observations

Time (CDT) Temp. Heat Index Dew Point Humidity Pressure Visibility Wind Dir Wind Speed Gust Speed Precip Events Conditions
12:15 AM 65.5 °F - 62.2 °F 89% 30.22 in 10.0 mi Calm Calm - N/A   Clear
12:35 AM 66.0 °F - 62.6 °F 89% 30.24 in 10.0 mi Calm Calm - N/A   Clear
12:55 AM 66.2 °F - 62.8 °F 89% 30.24 in 10.0 mi NNW 6.9 mph - N/A   Clear
1:15 AM 65.1 °F - 62.8 °F 92% 30.26 in 10.0 mi NW 6.9 mph - N/A   Clear
1:35 AM 65.3 °F - 62.6 °F 91% 30.27 in 10.0 mi NNE 3.5 mph - N/A   Clear
1:55 AM 64.9 °F - 62.6 °F 92% 30.26 in 10.0 mi Calm Calm - N/A   Clear
2:15 AM 64.8 °F - 62.2 °F 92% 30.26 in 10.0 mi NW 4.6 mph - N/A   Clear
2:35 AM 64.9 °F - 62.1 °F 90% 30.26 in 10.0 mi NW 5.8 mph - N/A   Clear
2:55 AM 64.8 °F - 62.1 °F 91% 30.25 in 10.0 mi WNW 5.8 mph - N/A   Clear
3:15 AM 64.8 °F - 62.2 °F 92% 30.25 in 10.0 mi West 3.5 mph - N/A   Clear
3:35 AM 64.8 °F - 62.2 °F 92% 30.26 in 10.0 mi Calm Calm - N/A   Clear
3:55 AM 64.6 °F - 62.6 °F 93% 30.26 in 10.0 mi WNW 3.5 mph - N/A   Clear
4:15 AM 63.9 °F - 62.4 °F 95% 30.24 in 10.0 mi WSW 5.8 mph - N/A   Clear
4:35 AM 63.9 °F - 62.6 °F 96% 30.24 in 10.0 mi West 4.6 mph - N/A   Clear
4:55 AM 63.7 °F - 62.4 °F 96% 30.25 in 10.0 mi Calm Calm - N/A   Clear
5:15 AM 63.9 °F - 62.6 °F 96% 30.25 in 10.0 mi Calm Calm - N/A   Clear
5:35 AM 63.1 °F - 62.2 °F 97% 30.24 in 10.0 mi Calm Calm - N/A   Clear
5:55 AM 62.4 °F - 61.7 °F 97% 30.25 in 10.0 mi Calm Calm - N/A   Clear
6:15 AM 61.9 °F - 61.5 °F 99% 30.25 in 10.0 mi East 6.9 mph - N/A   Clear
6:35 AM 61.7 °F - 61.3 °F 99% 30.25 in 10.0 mi Calm Calm - N/A   Clear
6:55 AM 61.7 °F - 61.3 °F 99% 30.25 in 7.0 mi East 4.6 mph - N/A   Clear
7:15 AM 62.4 °F - 61.9 °F 98% 30.26 in 7.0 mi East 6.9 mph - N/A   Clear
7:35 AM 62.8 °F - 62.4 °F 99% 30.25 in 7.0 mi East 5.8 mph - N/A   Clear
7:55 AM 63.9 °F - 63.0 °F 97% 30.25 in 10.0 mi East 3.5 mph - N/A   Clear
8:15 AM 64.8 °F - 63.7 °F 96% 30.25 in 10.0 mi East 6.9 mph - N/A   Clear
8:35 AM 66.4 °F - 65.1 °F 96% 30.24 in 7.0 mi ESE 4.6 mph - N/A   Clear
8:55 AM 68.2 °F - 65.5 °F 91% 30.24 in 10.0 mi ESE 12.7 mph 20.7 mph N/A   Clear
9:15 AM 69.6 °F - 65.1 °F 86% 30.25 in 10.0 mi North - - N/A   Clear
9:35 AM 70.5 °F - 65.5 °F 84% 30.26 in 10.0 mi ESE 10.4 mph 19.6 mph N/A   Scattered Clouds
9:55 AM 71.1 °F - 66.2 °F 85% 30.26 in 10.0 mi SE 10.4 mph 19.6 mph N/A   Mostly Cloudy
10:15 AM 70.3 °F - 65.8 °F 86% 30.26 in 10.0 mi North - - N/A   Mostly Cloudy
10:35 AM 70.9 °F - 65.7 °F 83% 30.24 in 10.0 mi SE 11.5 mph 21.9 mph N/A   Mostly Cloudy
10:55 AM 71.8 °F - 66.2 °F 83% 30.24 in 10.0 mi SE 9.2 mph 21.9 mph N/A   Mostly Cloudy
11:15 AM 72.5 °F - 65.8 °F 80% 30.24 in 10.0 mi North - - N/A   Mostly Cloudy
11:55 AM 73.8 °F - 65.8 °F 76% 30.24 in 10.0 mi SSE 10.4 mph - N/A   Mostly Cloudy
12:15 PM 73.2 °F - 65.5 °F 77% 30.24 in 10.0 mi SE 12.7 mph 16.1 mph N/A   Mostly Cloudy
12:35 PM 75.4 °F - 66.0 °F 73% 30.24 in 10.0 mi ESE 11.5 mph 21.9 mph N/A   Mostly Cloudy
12:55 PM 76.1 °F - 66.2 °F 71% 30.24 in 10.0 mi SE 9.2 mph - N/A   Mostly Cloudy
1:15 PM 75.9 °F - 66.0 °F 71% 30.23 in 10.0 mi SSE 6.9 mph 21.9 mph N/A   Mostly Cloudy
1:35 PM 77.0 °F - 66.2 °F 69% 30.22 in 10.0 mi SE 11.5 mph 20.7 mph N/A   Scattered Clouds
1:55 PM 75.9 °F - 64.9 °F 69% 30.23 in 10.0 mi SSE 9.2 mph 17.3 mph N/A   Mostly Cloudy
2:15 PM 76.6 °F - 65.1 °F 67% 30.22 in 10.0 mi SE 10.4 mph 17.3 mph N/A   Overcast
2:35 PM 76.6 °F - 65.1 °F 67% 30.22 in 10.0 mi ESE 10.4 mph 19.6 mph N/A   Overcast
2:55 PM 77.4 °F - 65.1 °F 66% 30.20 in 10.0 mi SE 12.7 mph - N/A   Scattered Clouds
3:15 PM 77.4 °F - 65.5 °F 67% 30.20 in 10.0 mi SE 12.7 mph - N/A   Scattered Clouds
3:35 PM 77.4 °F - 65.7 °F 67% 30.19 in 10.0 mi ESE 12.7 mph - N/A   Mostly Cloudy
3:55 PM 78.3 °F - 65.5 °F 65% 30.17 in 10.0 mi SE 8.1 mph - N/A   Overcast
4:15 PM 79.7 °F - 66.0 °F 63% 30.17 in 10.0 mi SE 15.0 mph 20.7 mph N/A   Mostly Cloudy
4:35 PM 80.8 °F 82.9 °F 66.0 °F 61% 30.15 in 10.0 mi SSE 13.8 mph 21.9 mph N/A   Scattered Clouds
5:15 PM 79.3 °F - 65.1 °F 62% 30.13 in 10.0 mi SSE 9.2 mph 18.4 mph N/A   Mostly Cloudy
5:35 PM 78.4 °F - 64.4 °F 62% 30.12 in 10.0 mi SE 12.7 mph 20.7 mph N/A   Overcast
5:55 PM 77.7 °F - 64.9 °F 65% 30.12 in 10.0 mi SE 12.7 mph 21.9 mph N/A   Overcast
6:15 PM 77.5 °F - 65.3 °F 66% 30.12 in 10.0 mi ESE 13.8 mph 18.4 mph N/A   Overcast
6:35 PM 77.4 °F - 64.8 °F 65% 30.11 in 10.0 mi SE 15.0 mph 20.7 mph N/A   Mostly Cloudy
6:55 PM 77.0 °F - 65.1 °F 67% 30.11 in 10.0 mi SSE 12.7 mph - N/A   Mostly Cloudy
7:15 PM 77.4 °F - 65.5 °F 67% 30.10 in 10.0 mi SSE 10.4 mph 16.1 mph N/A   Mostly Cloudy
7:35 PM 76.1 °F - 64.2 °F 67% 30.10 in 10.0 mi SE 11.5 mph - N/A   Clear
7:55 PM 75.0 °F - 64.6 °F 70% 30.10 in 10.0 mi SE 12.7 mph 17.3 mph N/A   Clear
8:15 PM 74.1 °F - 64.8 °F 72% 30.10 in 10.0 mi SE 11.5 mph 18.4 mph N/A   Clear
8:35 PM 73.0 °F - 64.9 °F 76% 30.11 in 10.0 mi SE 10.4 mph 16.1 mph N/A   Clear
8:55 PM 72.0 °F - 65.1 °F 79% 30.12 in 10.0 mi SE 10.4 mph - N/A   Clear
9:15 PM 71.1 °F - 64.8 °F 80% 30.12 in 10.0 mi SE 10.4 mph - N/A   Clear
9:35 PM 70.7 °F - 65.3 °F 83% 30.13 in 10.0 mi SE 9.2 mph - N/A   Clear
9:55 PM 70.0 °F - 65.3 °F 85% 30.14 in 10.0 mi SE 10.4 mph - N/A   Clear
10:15 PM 69.4 °F - 65.3 °F 87% 30.15 in 10.0 mi SE 10.4 mph - N/A   Clear
10:35 PM 69.1 °F - 65.5 °F 88% 30.16 in 10.0 mi SE 8.1 mph - N/A   Clear
10:55 PM 68.5 °F - 65.5 °F 90% 30.16 in 10.0 mi SE 8.1 mph - N/A   Clear
11:15 PM 68.0 °F - 65.5 °F 92% 30.15 in 10.0 mi SE 6.9 mph - N/A   Scattered Clouds
11:35 PM 68.5 °F - 65.7 °F 90% 30.15 in 10.0 mi SE 6.9 mph - N/A   Mostly Cloudy
11:55 PM 68.4 °F - 65.3 °F 90% 30.14 in 10.0 mi SE 6.9 mph - N/A   Mostly Cloudy